Location: ???? ?????
(30.0052°N, 31.2891°E)
Time: 21:17:42
(UTC+00:00)

Iridium 16 - Pass Details

Date: 01 February 2023
Orbit: 765 x 769 km, 86.4° (Epoch: 01 April)

Event Time Altitude Azimuth Distance (km) Brightness Sun altitude
Rises 04:02:44 0° 211° (SSW) 3,217 8.6 -9.7°
Reaches altitude 10° 04:05:30 10° 226° (SW) 2,296 7.7 -9.1°
Maximum altitude 04:09:32 23° 278° (W) 1,580 6.5 -8.2°
Drops below altitude 10° 04:13:36 10° 330° (NNW) 2,307 7.6 -7.4°
Sets 04:16:25 0° 345° (NNW) 3,238 8.4 -6.8°
